SCP
0 -0 0 -0 -0 -0 -0 -0 -0 -0 -0 -0 -0 -0 -0 -0 0 0 0 0 0 0 0 0 -0 -0 0 0 0 -0 0 -0 0 0 0 0 0 0 0 0 0 0 0 0 0 0 0
-0 0 -0 -0 -0 -0 -0 -0 -0 -0 -0 -0 -0 -0 -0 -0 -0 0 0 0 0 0 0 0 0 0 0 0 0 0 -0 0 -0 0 0 0 0 0 0 0 0 0 0 0 0 0 0
-0 0 -0 -0 -0 -0 -0 -0 -0 -0 -0 -0 -0 -0 -0 -0 -0 0 0 0 0 0 0 0 0 0 0 0 0 0 0 0 0 0 0 0 0 0 0 0 0 0 0 0 0 0 0
-0 0 -0 -0 -0 -0 -0 -0 -0 -0 -0 -0 -0 -0 -0 -0 0 -0 -0 0 0 0 0 0 0 0 0 -0 0 0 0 -0 0 0 0 0 0 0 0 0 0 0 0 0 0 0 0
-0 0 0 0 0 -0 -0 -0 -0 -0 -0 -0 -0 -0 -0 0 0 -0 -0 0 0 0 0 0 0 0 0 -0 0 0 0 0 0 0 0 0 0 0 0 0 0 0 0 0 0 0 0
-0 -0 -0 -0 -0 0 -0 -0 -0 -0 -0 -0 -0 -0 -0 0 -0 -0 -0 0 0 0 0 0 0 0 0 0 0 0 0 0 0 0 0 0 0 0 0 0 0 0 0 0 0 0 0
-0 -0 -0 -0 -0 -0 -0 -0 -0 -0 -0 -0 -0 -0 -0 -0 -0 -0 0 0 -0 0 0 0 0 0 -0 0 -0 0 0 0 0 0 0 0 0 0 0 0 0 0 0 0 0 0 0
-0 -0 -0 0 0 -0 -0 -0 -0 -0 -0 -0 -0 -0 0 -0 0 0 0 0 0 0 0 0 -0 -0 -0 -0 -0 -0 0 0 0 0 0 0 0 0 0 0 0 0 0 0 0 0 0
-0 -0 -0 0 0 -0 -0 -0 -0 -0 -0 0 0 0 0 0 0 0 0 0 0 0 0 -0 -0 0 0 0 0 0 0 0 0 0 0 0 0 0 0 0 0 0 0 0 0 0 0
-0 -0 -0 -0 -0 -0 0 0 0 0 0 0 0 0 -0 0 0 0 0 0 0 0 0 0 0 0 0 0 0 0 0 0 0 0 0 0 0 0 0 0 0 0 0 0 0 0 0
-0 -0 -0 -0 -0 -0 0 0 0 0 0 0 0 0 -0 0 0 0 0 0 0 0 0 0 0 0 0 0 0 0 0 0 0 0 0 0 0 0 0 0 0 -0 0 0 0 0 0
-0 -0 -0 -0 -0 -0 0 0 0 -0 0 0 0 0 -0 0 0 0 0 0 0 0 0 0 0 0 0 0 0 0 0 0 0 0 0 0 0 0 0 0 0 0 0 0 0 0 0
-0 -0 -0 -0 -0 -0 -0 0 -0 -0 0 -0 0 -0 -0 0 0 0 0 0 0 0 0 0 0 0 0 0 0 0 0 0 0 0 0 -0 0 0 0 0 0 0 0 0 0 0 0
0 0 -0 -0 -0 0 -0 0 -0 -0 -0 -0 -0 -0 0 0 0 0 0 0 0 0 0 0 0 0 0 0 0 0 0 0 0 0 0 0 0 0 0 0 0 0 0 0 0 0 -0
0 0 0 0 0 0 0 0 -0 0 -0 -0 -0 0 0 0 0 0 0 0 0 0 0 0 0 0 0 0 0 0 0 0 0 0 0 0 0 -0 0 0 0 0 0 0 0 -0 -0
0 0 0 0 0 0 0 0 0 0 0 0 0 0 0 0 0 0 0 0 0 0 0 0 0 0 0 0 0 0 0 0 0 0 0 0 0 0 0 0 0 0 0 0 0 0 0
0 0 0 0 0 0 0 0 0 0 0 0 0 0 0 0 0 0 0 0 0 0 0 0 0 0 0 0 0 0 0 0 0 0 0 0 0 0 0 0 0 0 0 0 0 0 0
0 0 0 0 0 0 0 0 0 0 0 0 0 0 0 0 0 0 0 0 0 0 0 0 0 0 0 0 0 0 0 0 0 0 0 0 0 0 0 0 0 0 0 0 -0 0 0
0 0 0 0 0 0 0 0 0 0 0 0 0 0 0 0 0 0 0 0 0 0 0 0 0 0 0 0 0 0 0 0 0 0 0 0 0 0 0 0 0 0 0 0 0 0 0
0 0 0 0 0 0 0 0 0 0 0 0 0 0 0 0 0 0 0 0 0 0 0 0 0 0 0 0 0 0 0 0 0 0 0 0 0 0 0 0 0 0 0 0 0 0 0
0 0 0 0 0 0 0 0 0 0 0 0 0 0 0 0 0 0 0 0 0 0 0 0 0 0 0 0 0 0 0 0 0 0 0 0 0 0 0 0 0 0 0 0 0 0 0
0 0 0 0 0 0 0 0 0 0 0 0 0 0 0 0 0 0 0 0 0 0 0 0 0 0 0 0 0 0 0 0 0 0 0 0 0 0 0 0 0 0 0 0 0 0 0
0 0 0 0 0 0 0 0 0 0 0 0 0 0 0 0 0 0 0 0 0 0 0 0 0 0 0 0 0 0 0 0 0 0 0 0 0 0 0 0 0 0 0 0 0 0 0
0 0 0 0 0 0 0 0 0 0 0 0 0 0 0 0 0 0 0 0 0 0 0 0 0 0 0 0 0 0 0 0 0 0 0 0 0 0 0 0 0 0 0 0 0 0 -0
0 0 0 0 0 0 0 0 0 0 0 0 0 0 0 0 0 0 0 0 0 0 0 0 0 0 0 0 0 0 0 0 0 0 0 0 0 0 0 0 0 0 0 0 0 0 0
0 0 0 0 0 0 0 0 0 0 0 0 0 0 0 0 0 0 0 0 0 0 0 0 0 0 0 0 0 0 0 0 0 0 0 0 0 0 0 0 0 0 0 0 0 0 0
0 0 0 0 0 0 0 0 0 0 0 0 0 0 0 0 0 0 0 0 0 0 0 0 0 0 0 0 0 0 0 0 0 0 0 0 0 0 0 0 0 0 0 0 0 0 0
0 0 0 0 0 0 0 0 0 0 0 0 0 0 0 0 0 0 0 0 0 0 0 0 0 0 0 0 0 0 0 0 0 0 0 0 0 0 0 0 0 0 0 0 0 0 0
0 0 0 0 0 0 0 0 0 0 0 0 0 0 0 0 0 0 0 0 0 0 0 0 0 0 0 0 0 0 0 0 0 0 0 0 0 0 0 0 0 0 0 0 0 0 -0
Wind_Speed_500mb
64 67 69 68 72 75 75 78 80 82 83 82 76 67 57 48 40 36 36 34 29 24 21 21 16 12 13 7 2 10 19 12 16 17 14 24 27 17 4 8 18 8 5 32 37 36 39
64 66 68 69 71 74 76 79 81 83 87 85 81 69 58 43 33 31 31 28 26 30 31 25 20 15 8 4 14 9 16 16 9 7 11 17 16 25 7 13 5 22 32 37 40 47 36
62 64 66 70 73 74 76 80 84 86 88 89 85 74 59 39 29 28 27 23 22 28 27 23 17 17 12 3 9 8 12 16 19 16 10 15 13 18 20 16 21 45 18 27 27 30 19
60 63 66 69 72 75 77 80 83 86 89 91 88 76 55 38 31 26 27 23 27 26 17 20 17 17 5 12 7 6 7 11 21 15 16 15 22 27 15 14 19 13 9 8 14 10 26
59 62 65 68 72 75 78 81 84 87 89 92 89 77 48 36 34 26 32 24 33 9 11 18 9 12 3 7 13 14 19 16 23 26 25 21 22 18 17 4 9 6 11 15 23 13 14
59 62 65 68 71 75 78 81 84 87 89 91 91 78 41 30 28 24 33 21 26 14 26 9 8 8 2 26 31 18 21 8 18 23 28 22 13 4 8 7 13 17 11 14 20 20 9
59 62 65 68 71 74 77 80 83 85 88 89 93 77 37 33 19 29 39 26 42 9 50 14 23 19 28 12 24 15 15 13 19 15 10 29 4 15 26 20 32 24 32 34 23 16 18
58 61 64 67 70 73 77 79 83 85 87 87 90 71 41 38 14 24 31 45 35 21 20 19 18 33 29 23 24 22 14 17 15 13 8 8 12 21 18 23 25 21 23 27 29 15 10
57 60 63 66 69 72 75 79 81 84 86 86 87 60 49 28 16 26 37 38 34 29 5 21 10 4 24 12 12 22 27 40 16 9 13 12 18 19 24 30 32 31 19 21 25 15 11
58 61 64 67 69 72 74 78 80 82 85 86 86 47 50 37 8 36 38 39 23 25 8 9 14 16 44 32 12 25 55 28 9 16 12 12 17 20 29 29 29 36 28 32 36 16 22
57 60 63 66 68 71 74 76 78 82 86 87 82 34 42 42 30 38 45 33 2 8 10 12 9 18 51 24 28 21 50 28 7 14 4 14 12 16 20 21 15 30 26 34 44 14 7
57 59 62 65 67 70 73 75 77 81 86 87 72 24 53 43 43 47 50 37 3 10 3 16 18 20 23 29 28 39 47 33 21 5 8 10 25 10 10 21 20 23 17 21 4 7 10
57 60 62 64 67 68 71 74 75 79 83 85 59 18 51 55 52 56 56 6 10 11 14 18 17 31 8 28 18 29 23 16 8 14 12 24 9 5 12 18 28 36 22 9 8 5 18
58 61 62 63 64 67 69 71 73 76 81 81 47 12 27 53 57 51 40 12 17 7 8 10 16 17 11 27 15 23 23 13 10 9 7 10 16 14 26 22 14 22 12 7 10 7 25
59 62 63 63 63 64 67 68 69 71 78 80 47 13 36 57 42 36 20 12 4 3 5 7 16 8 8 24 8 16 14 4 9 13 6 10 13 39 39 34 5 8 13 14 11 22 17
60 61 62 60 61 62 62 61 65 67 73 78 50 10 50 46 36 19 15 5 4 8 8 3 3 5 19 23 11 12 9 3 4 13 9 4 29 17 11 33 26 15 11 9 5 7 26
63 62 59 57 55 55 56 55 63 66 68 70 41 7 43 34 10 21 7 7 8 17 14 3 3 9 11 9 5 6 10 13 6 4 7 11 12 18 24 9 26 11 9 8 5 7 9
64 61 59 57 53 50 50 51 59 66 63 59 34 7 27 38 17 9 5 10 21 17 5 2 3 10 11 5 7 6 11 5 41 16 6 1 9 17 32 52 32 26 9 6 6 10 10
57 56 55 54 53 51 49 48 53 58 60 61 36 13 26 31 7 8 17 14 12 25 4 4 5 7 6 11 7 11 18 17 27 11 8 7 7 15 14 9 4 2 10 17 21 19 36
53 51 50 49 47 44 45 45 46 48 50 44 19 9 18 15 32 3 9 10 13 24 11 9 13 16 9 7 13 14 25 16 12 30 40 19 9 17 26 37 32 39 44 41 30 12 25
50 50 49 47 47 46 42 44 41 42 39 28 16 6 8 8 17 28 6 10 14 9 11 24 8 8 15 8 10 25 15 25 19 58 13 12 13 22 35 44 44 50 50 48 39 38 32
47 48 48 47 46 45 43 40 39 33 32 17 13 10 16 28 22 7 7 6 8 21 10 11 15 31 17 9 14 31 31 34 19 11 13 7 9 8 23 39 41 45 27 15 12 17 23
46 47 48 48 46 44 42 37 35 28 28 11 25 19 8 14 10 6 6 10 21 25 15 34 13 9 11 11 44 66 64 68 28 13 8 6 5 6 20 22 34 7 7 9 19 23 24
46 47 48 47 46 42 40 37 31 23 23 30 24 18 7 9 7 8 19 35 22 25 13 36 25 6 23 57 69 54 37 40 32 30 33 8 5 4 12 15 7 6 8 13 24 37 33
44 46 47 47 45 42 37 36 31 22 22 25 23 14 7 9 10 35 12 21 36 43 18 37 19 26 48 34 11 14 10 13 7 5 8 7 5 9 7 6 31 4 8 17 26 49 7
40 41 43 44 43 42 39 36 30 24 22 27 24 25 15 12 12 16 27 15 16 9 12 13 38 24 25 10 7 6 6 8 10 14 7 6 10 7 8 9 9 4 8 43 24 14 22
37 37 39 41 40 39 36 37 32 24 26 24 26 20 17 17 47 25 11 14 15 5 6 18 18 14 19 6 5 3 7 10 7 10 8 10 4 9 9 9 12 12 42 34 9 13 62
39 38 38 40 39 39 36 33 31 28 27 27 29 26 25 18 65 70 38 27 28 28 6 13 15 6 6 8 4 5 4 7 9 9 6 6 7 4 5 8 10 42 18 15 19 52 64
39 40 39 38 39 38 37 35 32 30 30 30 36 28 29 33 57 72 81 90 73 55 50 18 9 6 10 5 3 4 6 5 7 7 4 6 6 5 7 9 27 51 38 41 53 59 64
Wind_Direction_500mb
31 29 28 26 24 23 21 19 18 17 14 12 9 7 4 359 359 2 2 3 4 2 353 342 349 350 345 339 219 101 41 71 75 66 23 345 338 348 296 269 328 214 304 317 310 316 313
29 26 25 24 22 20 18 17 15 14 12 11 9 7 2 3 5 4 360 0 4 359 354 344 345 349 344 305 122 67 34 43 59 26 2 321 332 341 293 334 356 301 317 307 315 312 311
26 25 23 22 20 17 15 14 13 12 10 9 8 6 4 9 14 8 7 6 356 351 353 2 2 358 325 61 100 309 308 333 323 301 298 350 306 314 311 331 316 315 326 320 301 300 296
24 22 21 19 17 15 13 12 11 9 8 6 7 5 5 14 17 18 16 2 344 332 345 10 355 351 341 68 327 313 301 336 10 351 291 316 312 278 244 256 301 309 320 289 276 298 278
21 19 18 17 15 13 12 10 9 7 6 5 6 4 8 15 21 29 19 26 349 9 24 353 335 355 357 11 340 214 243 267 296 289 291 299 294 291 258 288 356 331 263 258 288 227 255
17 16 15 14 12 11 9 8 6 4 4 3 3 3 9 16 25 33 20 2 18 72 25 4 7 333 54 321 339 263 235 291 311 293 280 283 273 330 348 80 260 258 247 266 279 295 256
13 13 12 11 9 8 7 6 4 2 2 2 360 2 10 8 14 24 24 25 22 335 329 273 282 271 298 330 318 293 263 268 275 242 223 268 14 274 261 246 249 260 265 264 276 271 280
10 9 9 8 6 5 4 3 2 360 360 0 358 2 7 355 35 20 17 21 1 326 310 333 286 261 280 284 293 327 248 262 246 243 270 332 278 258 268 285 284 280 279 284 285 280 260
6 6 5 4 3 2 1 0 0 358 357 358 357 0 15 15 55 20 7 5 348 336 333 310 29 13 23 276 257 291 297 271 220 224 244 231 243 284 286 288 288 287 275 287 271 263 228
2 2 1 1 360 359 359 358 358 357 356 356 355 1 8 21 5 2 1 347 339 337 67 332 16 15 345 335 274 290 339 278 209 216 243 237 265 280 277 273 279 279 269 277 285 274 279
358 358 357 357 357 356 356 356 357 357 355 355 354 10 14 17 7 2 360 8 342 326 62 325 29 323 349 19 317 348 356 11 271 251 221 255 287 293 301 279 285 286 279 277 268 224 125
353 353 354 354 354 354 354 355 356 356 354 354 356 24 24 15 9 359 353 342 221 48 38 356 354 336 353 1 356 359 7 10 343 336 300 264 290 270 269 316 342 314 339 309 343 119 234
349 349 351 352 352 352 351 353 356 356 354 353 358 35 27 21 6 358 353 33 51 63 344 349 332 331 10 360 354 14 1 359 32 355 349 310 277 265 59 347 345 345 355 334 321 311 263
344 344 346 348 350 349 350 351 354 355 354 351 358 13 11 7 358 1 358 54 66 12 32 318 321 320 26 8 343 357 345 346 28 47 287 344 315 0 343 328 291 279 205 196 283 250 285
337 337 338 340 343 345 347 349 352 356 355 351 359 353 11 3 348 1 12 50 150 286 297 300 313 319 341 337 321 360 324 268 54 47 27 309 260 320 297 291 107 302 265 213 257 273 274
332 331 331 333 336 340 344 348 350 357 356 353 357 50 16 7 33 44 58 122 177 218 247 229 334 346 320 327 358 351 301 327 59 48 54 268 298 290 319 316 275 203 294 304 355 301 265
332 333 332 330 332 337 342 349 348 352 355 356 359 26 3 352 350 37 92 258 296 281 267 217 277 281 292 298 287 305 264 316 119 268 221 245 226 287 309 252 289 306 308 308 281 217 273
331 333 335 335 334 339 344 353 352 355 359 3 356 7 350 9 44 14 355 301 317 335 80 155 212 247 269 285 269 263 244 255 298 335 321 143 269 283 278 279 273 245 176 147 242 280 278
329 331 333 335 340 339 341 347 347 352 359 357 341 319 349 18 60 339 319 322 305 330 315 356 264 257 221 219 323 220 263 250 279 168 228 176 236 296 297 338 28 323 263 273 268 251 259
328 329 331 332 331 332 332 335 340 350 358 354 348 360 340 8 11 103 348 290 318 317 292 325 276 300 336 268 218 273 283 306 228 260 267 222 216 240 269 272 291 284 279 279 271 258 279
326 328 330 330 331 330 329 328 332 334 359 2 12 347 13 305 330 322 288 262 288 331 347 315 318 316 288 276 271 274 266 294 284 289 269 179 261 246 257 264 270 272 279 282 271 267 270
327 329 330 332 332 332 330 329 327 328 350 8 4 353 317 294 292 289 309 310 303 324 320 292 317 309 287 253 213 296 298 291 275 289 165 175 274 295 276 266 264 270 294 336 319 324 303
326 328 331 332 332 332 330 328 329 331 344 349 334 314 283 276 293 317 260 339 298 323 314 327 317 317 293 273 292 280 275 268 244 227 214 208 254 275 286 322 306 286 131 359 294 278 281
326 329 331 332 333 333 330 328 324 327 327 323 321 313 274 275 288 254 299 304 305 307 286 314 322 330 304 317 307 304 281 261 249 243 221 201 231 260 292 340 315 176 111 339 301 288 292
328 329 331 333 335 335 333 329 327 318 303 303 311 297 243 274 245 298 331 318 311 314 296 296 354 326 326 326 340 337 339 1 24 77 106 151 95 306 295 259 274 154 358 331 320 310 37
329 331 333 335 335 335 337 332 329 325 320 319 320 280 235 281 250 243 316 296 295 290 321 271 332 316 345 22 358 346 293 318 318 337 127 155 224 217 292 300 285 44 314 332 312 277 359
326 330 336 337 336 333 334 337 333 336 323 300 299 269 249 257 280 276 227 302 282 323 271 306 332 342 13 22 336 321 299 329 308 312 304 306 304 249 259 265 282 4 352 327 7 299 321
322 325 329 333 336 334 332 333 330 329 319 299 289 291 259 249 277 285 271 237 257 286 179 289 344 347 44 47 353 337 284 289 318 284 260 282 317 291 299 282 295 357 343 336 301 306 304
319 322 321 323 328 331 331 327 323 322 302 299 288 288 268 251 265 280 285 287 281 277 253 237 240 193 175 118 222 278 270 286 301 287 225 281 215 277 199 247 289 313 305 315 317 302 307
Wind_Speed_850mb
64 67 69 68 72 75 75 78 80 82 83 82 76 67 57 48 40 36 36 34 29 24 21 21 16 12 13 7 2 10 19 12 16 17 14 24 27 17 4 8 18 8 5 32 37 36 39
64 66 68 69 71 74 76 79 81 83 87 85 81 69 58 43 33 31 31 28 26 30 31 25 20 15 8 4 14 9 16 16 9 7 11 17 16 25 7 13 5 22 32 37 40 47 36
62 64 66 70 73 74 76 80 84 86 88 89 85 74 59 39 29 28 27 23 22 28 27 23 17 17 12 3 9 8 12 16 19 16 10 15 13 18 20 16 21 45 18 27 27 30 19
60 63 66 69 72 75 77 80 83 86 89 91 88 76 55 38 31 26 27 23 27 26 17 20 17 17 5 12 7 6 7 11 21 15 16 15 22 27 15 14 19 13 9 8 14 10 26
59 62 65 68 72 75 78 81 84 87 89 92 89 77 48 36 34 26 32 24 33 9 11 18 9 12 3 7 13 14 19 16 23 26 25 21 22 18 17 4 9 6 11 15 23 13 14
59 62 65 68 71 75 78 81 84 87 89 91 91 78 41 30 28 24 33 21 26 14 26 9 8 8 2 26 31 18 21 8 18 23 28 22 13 4 8 7 13 17 11 14 20 20 9
59 62 65 68 71 74 77 80 83 85 88 89 93 77 37 33 19 29 39 26 42 9 50 14 23 19 28 12 24 15 15 13 19 15 10 29 4 15 26 20 32 24 32 34 23 16 18
58 61 64 67 70 73 77 79 83 85 87 87 90 71 41 38 14 24 31 45 35 21 20 19 18 33 29 23 24 22 14 17 15 13 8 8 12 21 18 23 25 21 23 27 29 15 10
57 60 63 66 69 72 75 79 81 84 86 86 87 60 49 28 16 26 37 38 34 29 5 21 10 4 24 12 12 22 27 40 16 9 13 12 18 19 24 30 32 31 19 21 25 15 11
58 61 64 67 69 72 74 78 80 82 85 86 86 47 50 37 8 36 38 39 23 25 8 9 14 16 44 32 12 25 55 28 9 16 12 12 17 20 29 29 29 36 28 32 36 16 22
57 60 63 66 68 71 74 76 78 82 86 87 82 34 42 42 30 38 45 33 2 8 10 12 9 18 51 24 28 21 50 28 7 14 4 14 12 16 20 21 15 30 26 34 44 14 7
57 59 62 65 67 70 73 75 77 81 86 87 72 24 53 43 43 47 50 37 3 10 3 16 18 20 23 29 28 39 47 33 21 5 8 10 25 10 10 21 20 23 17 21 4 7 10
57 60 62 64 67 68 71 74 75 79 83 85 59 18 51 55 52 56 56 6 10 11 14 18 17 31 8 28 18 29 23 16 8 14 12 24 9 5 12 18 28 36 22 9 8 5 18
58 61 62 63 64 67 69 71 73 76 81 81 47 12 27 53 57 51 40 12 17 7 8 10 16 17 11 27 15 23 23 13 10 9 7 10 16 14 26 22 14 22 12 7 10 7 25
59 62 63 63 63 64 67 68 69 71 78 80 47 13 36 57 42 36 20 12 4 3 5 7 16 8 8 24 8 16 14 4 9 13 6 10 13 39 39 34 5 8 13 14 11 22 17
60 61 62 60 61 62 62 61 65 67 73 78 50 10 50 46 36 19 15 5 4 8 8 3 3 5 19 23 11 12 9 3 4 13 9 4 29 17 11 33 26 15 11 9 5 7 26
63 62 59 57 55 55 56 55 63 66 68 70 41 7 43 34 10 21 7 7 8 17 14 3 3 9 11 9 5 6 10 13 6 4 7 11 12 18 24 9 26 11 9 8 5 7 9
64 61 59 57 53 50 50 51 59 66 63 59 34 7 27 38 17 9 5 10 21 17 5 2 3 10 11 5 7 6 11 5 41 16 6 1 9 17 32 52 32 26 9 6 6 10 10
57 56 55 54 53 51 49 48 53 58 60 61 36 13 26 31 7 8 17 14 12 25 4 4 5 7 6 11 7 11 18 17 27 11 8 7 7 15 14 9 4 2 10 17 21 19 36
53 51 50 49 47 44 45 45 46 48 50 44 19 9 18 15 32 3 9 10 13 24 11 9 13 16 9 7 13 14 25 16 12 30 40 19 9 17 26 37 32 39 44 41 30 12 25
50 50 49 47 47 46 42 44 41 42 39 28 16 6 8 8 17 28 6 10 14 9 11 24 8 8 15 8 10 25 15 25 19 58 13 12 13 22 35 44 44 50 50 48 39 38 32
47 48 48 47 46 45 43 40 39 33 32 17 13 10 16 28 22 7 7 6 8 21 10 11 15 31 17 9 14 31 31 34 19 11 13 7 9 8 23 39 41 45 27 15 12 17 23
46 47 48 48 46 44 42 37 35 28 28 11 25 19 8 14 10 6 6 10 21 25 15 34 13 9 11 11 44 66 64 68 28 13 8 6 5 6 20 22 34 7 7 9 19 23 24
46 47 48 47 46 42 40 37 31 23 23 30 24 18 7 9 7 8 19 35 22 25 13 36 25 6 23 57 69 54 37 40 32 30 33 8 5 4 12 15 7 6 8 13 24 37 33
44 46 47 47 45 42 37 36 31 22 22 25 23 14 7 9 10 35 12 21 36 43 18 37 19 26 48 34 11 14 10 13 7 5 8 7 5 9 7 6 31 4 8 17 26 49 7
40 41 43 44 43 42 39 36 30 24 22 27 24 25 15 12 12 16 27 15 16 9 12 13 38 24 25 10 7 6 6 8 10 14 7 6 10 7 8 9 9 4 8 43 24 14 22
37 37 39 41 40 39 36 37 32 24 26 24 26 20 17 17 47 25 11 14 15 5 6 18 18 14 19 6 5 3 7 10 7 10 8 10 4 9 9 9 12 12 42 34 9 13 62
39 38 38 40 39 39 36 33 31 28 27 27 29 26 25 18 65 70 38 27 28 28 6 13 15 6 6 8 4 5 4 7 9 9 6 6 7 4 5 8 10 42 18 15 19 52 64
39 40 39 38 39 38 37 35 32 30 30 30 36 28 29 33 57 72 81 90 73 55 50 18 9 6 10 5 3 4 6 5 7 7 4 6 6 5 7 9 27 51 38 41 53 59 64
Wind_Direction_850mb
31 29 28 26 24 23 21 19 18 17 14 12 9 7 4 359 359 2 2 3 4 2 353 342 349 350 345 339 219 101 41 71 75 66 23 345 338 348 296 269 328 214 304 317 310 316 313
29 26 25 24 22 20 18 17 15 14 12 11 9 7 2 3 5 4 360 0 4 359 354 344 345 349 344 305 122 67 34 43 59 26 2 321 332 341 293 334 356 301 317 307 315 312 311
26 25 23 22 20 17 15 14 13 12 10 9 8 6 4 9 14 8 7 6 356 351 353 2 2 358 325 61 100 309 308 333 323 301 298 350 306 314 311 331 316 315 326 320 301 300 296
24 22 21 19 17 15 13 12 11 9 8 6 7 5 5 14 17 18 16 2 344 332 345 10 355 351 341 68 327 313 301 336 10 351 291 316 312 278 244 256 301 309 320 289 276 298 278
21 19 18 17 15 13 12 10 9 7 6 5 6 4 8 15 21 29 19 26 349 9 24 353 335 355 357 11 340 214 243 267 296 289 291 299 294 291 258 288 356 331 263 258 288 227 255
17 16 15 14 12 11 9 8 6 4 4 3 3 3 9 16 25 33 20 2 18 72 25 4 7 333 54 321 339 263 235 291 311 293 280 283 273 330 348 80 260 258 247 266 279 295 256
13 13 12 11 9 8 7 6 4 2 2 2 360 2 10 8 14 24 24 25 22 335 329 273 282 271 298 330 318 293 263 268 275 242 223 268 14 274 261 246 249 260 265 264 276 271 280
10 9 9 8 6 5 4 3 2 360 360 0 358 2 7 355 35 20 17 21 1 326 310 333 286 261 280 284 293 327 248 262 246 243 270 332 278 258 268 285 284 280 279 284 285 280 260
6 6 5 4 3 2 1 0 0 358 357 358 357 0 15 15 55 20 7 5 348 336 333 310 29 13 23 276 257 291 297 271 220 224 244 231 243 284 286 288 288 287 275 287 271 263 228
2 2 1 1 360 359 359 358 358 357 356 356 355 1 8 21 5 2 1 347 339 337 67 332 16 15 345 335 274 290 339 278 209 216 243 237 265 280 277 273 279 279 269 277 285 274 279
358 358 357 357 357 356 356 356 357 357 355 355 354 10 14 17 7 2 360 8 342 326 62 325 29 323 349 19 317 348 356 11 271 251 221 255 287 293 301 279 285 286 279 277 268 224 125
353 353 354 354 354 354 354 355 356 356 354 354 356 24 24 15 9 359 353 342 221 48 38 356 354 336 353 1 356 359 7 10 343 336 300 264 290 270 269 316 342 314 339 309 343 119 234
349 349 351 352 352 352 351 353 356 356 354 353 358 35 27 21 6 358 353 33 51 63 344 349 332 331 10 360 354 14 1 359 32 355 349 310 277 265 59 347 345 345 355 334 321 311 263
344 344 346 348 350 349 350 351 354 355 354 351 358 13 11 7 358 1 358 54 66 12 32 318 321 320 26 8 343 357 345 346 28 47 287 344 315 0 343 328 291 279 205 196 283 250 285
337 337 338 340 343 345 347 349 352 356 355 351 359 353 11 3 348 1 12 50 150 286 297 300 313 319 341 337 321 360 324 268 54 47 27 309 260 320 297 291 107 302 265 213 257 273 274
332 331 331 333 336 340 344 348 350 357 356 353 357 50 16 7 33 44 58 122 177 218 247 229 334 346 320 327 358 351 301 327 59 48 54 268 298 290 319 316 275 203 294 304 355 301 265
332 333 332 330 332 337 342 349 348 352 355 356 359 26 3 352 350 37 92 258 296 281 267 217 277 281 292 298 287 305 264 316 119 268 221 245 226 287 309 252 289 306 308 308 281 217 273
331 333 335 335 334 339 344 353 352 355 359 3 356 7 350 9 44 14 355 301 317 335 80 155 212 247 269 285 269 263 244 255 298 335 321 143 269 283 278 279 273 245 176 147 242 280 278
329 331 333 335 340 339 341 347 347 352 359 357 341 319 349 18 60 339 319 322 305 330 315 356 264 257 221 219 323 220 263 250 279 168 228 176 236 296 297 338 28 323 263 273 268 251 259
328 329 331 332 331 332 332 335 340 350 358 354 348 360 340 8 11 103 348 290 318 317 292 325 276 300 336 268 218 273 283 306 228 260 267 222 216 240 269 272 291 284 279 279 271 258 279
326 328 330 330 331 330 329 328 332 334 359 2 12 347 13 305 330 322 288 262 288 331 347 315 318 316 288 276 271 274 266 294 284 289 269 179 261 246 257 264 270 272 279 282 271 267 270
327 329 330 332 332 332 330 329 327 328 350 8 4 353 317 294 292 289 309 310 303 324 320 292 317 309 287 253 213 296 298 291 275 289 165 175 274 295 276 266 264 270 294 336 319 324 303
326 328 331 332 332 332 330 328 329 331 344 349 334 314 283 276 293 317 260 339 298 323 314 327 317 317 293 273 292 280 275 268 244 227 214 208 254 275 286 322 306 286 131 359 294 278 281
326 329 331 332 333 333 330 328 324 327 327 323 321 313 274 275 288 254 299 304 305 307 286 314 322 330 304 317 307 304 281 261 249 243 221 201 231 260 292 340 315 176 111 339 301 288 292
328 329 331 333 335 335 333 329 327 318 303 303 311 297 243 274 245 298 331 318 311 314 296 296 354 326 326 326 340 337 339 1 24 77 106 151 95 306 295 259 274 154 358 331 320 310 37
329 331 333 335 335 335 337 332 329 325 320 319 320 280 235 281 250 243 316 296 295 290 321 271 332 316 345 22 358 346 293 318 318 337 127 155 224 217 292 300 285 44 314 332 312 277 359
326 330 336 337 336 333 334 337 333 336 323 300 299 269 249 257 280 276 227 302 282 323 271 306 332 342 13 22 336 321 299 329 308 312 304 306 304 249 259 265 282 4 352 327 7 299 321
322 325 329 333 336 334 332 333 330 329 319 299 289 291 259 249 277 285 271 237 257 286 179 289 344 347 44 47 353 337 284 289 318 284 260 282 317 291 299 282 295 357 343 336 301 306 304
319 322 321 323 328 331 331 327 323 322 302 299 288 288 268 251 265 280 285 287 281 277 253 237 240 193 175 118 222 278 270 286 301 287 225 281 215 277 199 247 289 313 305 315 317 302 307